Location: Certosino
(44.8667°N, 10.3833°E)
Time: 15:33:47
(UTC+00:00)

Daily predictions for brighter satellites

Satellite Brightness Start Highest point End
(mag) Time Altitude Azimuth Time Altitude Azimuth Time Altitude Azimuth
Spot 1 4.4 16:07:37 10° NNE 16:12:25 76° ESE 16:17:26 10° S
Cosmos 2322 Rocket 3.9 16:11:56 10° N 16:14:43 14° NE 16:17:29 10° ENE
Cosmos 1697 Rocket 2.7 16:09:33 10° NNW 16:15:13 83° ENE 16:20:49 10° SSE
CZ-4C R/B 3.2 16:09:51 10° NNW 16:16:40 47° NE 16:24:37 10° ESE
Cosmos 468 Rocket 4.2 16:12:29 10° SSW 16:17:38 78° WNW 16:22:52 10° NNE
Cosmos 1980 Rocket 2.4 16:14:54 10° NNW 16:20:25 49° ENE 16:25:51 10° SE
NOAA 12 4.1 16:15:16 10° SSE 16:20:35 82° ENE 16:25:56 10° NNW
ATLAS CENTAUR R/B 3.2 16:13:00 10° SW 16:24:20 83° NW 16:28:47 10° NE
Meteor PRIRODA 3.8 16:20:58 10° S 16:24:35 79° WSW 16:28:13 10° NNW
COSMO-SKYMED 1 4.1 16:23:14 10° NE 16:26:09 17° E 16:29:03 10° SE
Cosmos 1898 Rocket 3.7 16:21:09 10° NNW 16:26:25 77° WSW 16:31:35 10° SSE
Cosmos 1627 Rocket 4.5 16:20:25 10° N 16:26:32 63° E 16:32:34 10° SSE
Cosmos 1933 3.3 16:22:48 10° S 16:26:50 78° E 16:30:52 10° N
Cosmos 2369 3.7 16:21:31 10° NNW 16:27:15 69° ENE 16:32:56 10° SE
FengYun 1-2 T 4.2 16:23:33 10° SSE 16:29:08 81° ENE 16:34:42 10° NNW
Cosmos 2034 Rocket 4.4 16:23:17 10° SSW 16:29:24 69° W 16:35:35 10° N
USA 305 4.3 16:26:08 10° NW 16:29:38 24° N 16:32:38 12° ENE
CZ-4B R/B 3.1 16:25:46 10° S 16:29:46 74° WSW 16:33:37 10° NNW
Cosmos 1633 Rocket 4.0 16:26:27 10° NNE 16:30:11 27° ENE 16:33:55 10° SE
Cosmos 1812 3.5 16:27:07 10° SSE 16:30:31 30° E 16:33:55 10° NNE
CORIOLIS 4.2 16:25:33 10° SSE 16:30:51 61° ENE 16:36:13 10° N
NOSS 2-2 (C) 4.4 16:26:52 10° NNW 16:32:04 70° NE 16:39:24 10° SE
Cosmos 1818 4.3 16:28:04 10° NNW 16:33:01 33° NE 16:37:54 10° ESE
SL-16 R/B 3.4 16:30:05 10° N 16:34:24 22° NE 16:38:41 10° E
AQUARIUS 4.1 16:30:58 10° SSE 16:35:24 62° ENE 16:39:51 10° N
Cosmos 1151 Rocket 3.7 16:31:49 10° SSE 16:35:42 34° E 16:39:39 10° NNE
CZ-2C R/B 3.7 16:34:44 10° S 16:36:37 13° SSE 16:38:28 10° SE
Cosmos 2082 Rocket 2.3 16:31:08 10° S 16:36:44 63° ESE 16:42:20 10° NNE
USA 267 3.3 16:32:07 10° NE 16:38:42 87° NW 16:45:15 10° SW
SMAP 3.0 16:35:34 10° SSE 16:40:13 82° ENE 16:44:54 10° NNW
Meteor 2-14 Rocket 4.4 16:37:00 10° N 16:43:08 76° E 16:49:11 10° SSE
Meteor 1-14 Rocket 4.5 16:38:55 10° N 16:44:39 52° ENE 16:50:25 10° SSE
ARGOS 3.8 16:42:08 10° SE 16:46:54 33° ENE 16:51:40 10° N
MOS 1-B 4.4 16:41:21 10° SE 16:46:56 54° ENE 16:52:34 10° N
Cosmos 1634 Rocket 4.0 16:41:50 10° S 16:48:08 81° E 16:54:30 10° N
CZ-4B DEB 4.1 16:44:41 10° SSE 16:50:10 76° ENE 16:55:41 10° NNW
Cosmos 2278 3.7 16:44:51 10° NNW 16:50:31 60° ENE 16:56:08 10° SE
Cosmos 2026 Rocket 4.0 16:45:02 10° N 16:51:12 89° W 16:57:15 10° S
Cosmos 1602 4.4 16:47:46 10° NNW 16:51:34 59° W 16:55:23 10° S
Cosmos 2208 Rocket 4.5 16:47:30 10° S 16:52:33 43° ESE 16:57:09 13° NE
Cosmos 1833 Rocket 3.6 16:49:10 10° SW 16:54:34 47° WNW 17:00:01 10° NNE
Cosmos 44 Rocket 3.7 16:50:32 10° NNW 16:55:12 40° NE 16:59:24 12° ESE
CZ-2C R/B 4.3 16:50:47 10° SSW 16:55:22 40° W 16:59:53 10° NNW
Cosmos 841 Rocket 3.6 16:50:34 10° SSW 16:55:43 78° WNW 17:00:54 10° NNE
Okean O Rocket 2.2 16:52:57 10° SE 16:56:56 33° ENE 17:00:57 10° N
X-37B 2.7 16:56:39 10° S 16:57:58 12° SE 16:58:29 12° SE
Cosmos 1666 Rocket 3.5 16:53:35 10° N 16:58:00 62° E 17:02:21 10° SSE
MOS 1-B Rocket 4.2 16:53:05 10° NNE 16:59:02 60° ESE 17:05:52 10° S
Cosmos 1328 Rocket 3.9 16:55:09 10° SSE 16:59:21 43° E 17:03:24 11° NNE
H-2A R/B 1.9 16:55:19 10° SSE 17:00:25 66° ENE 17:05:25 10° N
Cosmos 1470 Rocket 4.2 16:57:16 10° N 17:01:20 33° ENE 17:05:24 10° SE
Cosmos 1939 Rocket 3.9 16:57:47 10° S 17:01:47 50° W 17:05:46 10° NNW
USA 306 4.1 16:58:29 10° NW 17:02:09 27° NNE 17:03:35 22° NE
Cosmos 1937 Rocket 4.5 16:57:58 10° NNW 17:03:08 51° WSW 17:08:14 10° S
COSMOS 2406 4.0 16:58:06 10° SW 17:03:41 52° WNW 17:09:17 10° NNE
ISS -3.4 17:02:21 10° WNW 17:05:43 66° SW 17:08:20 16° SE
ATLAS 2AS CENTAUR R/B 4.5 17:02:06 10° NW 17:06:58 18° N 17:10:37 13° NE
Cosmos 372 Rocket 4.3 17:02:47 10° NNW 17:08:01 72° WSW 17:13:14 10° S
CZ-2C R/B 2.7 17:03:36 10° NNE 17:08:39 50° E 17:13:39 10° S
Meteor 2-21 Rocket 4.4 17:02:50 10° N 17:08:59 88° E 17:15:02 10° S
Cosmos 1125 Rocket 4.0 17:04:37 10° N 17:09:28 36° ENE 17:14:05 11° SE
Cosmos 1500 4.0 17:07:49 10° NNW 17:11:27 51° W 17:15:04 10° S
USA 234 3.2 17:05:18 10° SE 17:11:52 88° NE 17:18:27 10° NW
Meteor 1-27 Rocket 4.5 17:08:58 10° SE 17:13:31 27° E 17:14:11 26° ENE
SKYMED 2 3.7 17:11:18 17° NNE 17:14:32 53° E 17:18:46 10° S
Cosmos 1782 4.0 17:12:09 10° SSW 17:15:57 43° WNW 17:19:47 10° N
Cosmos 1900 4.2 17:11:16 10° SSW 17:16:06 72° ESE 17:18:52 26° NE
CZ-2D R/B 3.5 17:13:20 10° S 17:17:10 72° W 17:20:59 10° NNW
Sich 1 4.4 17:15:00 10° NNW 17:19:03 41° W 17:23:06 10° SSW
CZ-4B R/B 3.0 17:14:01 10° SSE 17:19:24 73° ENE 17:24:44 10° N
Cosmos 1655 Rocket 4.1 17:13:37 10° N 17:19:52 52° ENE 17:26:02 10° SSE
Cosmos 2180 Rocket 4.4 17:15:29 10° S 17:21:47 72° E 17:28:02 10° NNE
USA 307 3.9 17:18:06 10° NW 17:21:53 30° NNE 17:22:25 29° NNE
Meteor 2-6 Rocket 4.1 17:16:19 10° S 17:22:02 72° E 17:27:37 10° NNE
APEX 3.7 17:20:06 10° S 17:23:25 35° SE 17:23:25 35° SE
SJ-11-01 4.2 17:19:03 10° SSE 17:23:44 64° ENE 17:28:26 10° N
ATLAS 5 CENTAUR R/B 2.4 17:20:18 10° NW 17:26:16 38° NNE 17:26:27 37° NE
deb Chang Zheng 4 3.4 17:25:16 10° SSE 17:29:33 82° ENE 17:33:54 10° NNW
Cosmos 2360 Rocket 3.2 17:33:32 10° N 17:37:21 27° NNE 17:37:21 27° NNE
Lacrosse 5 rocket 1.1 17:34:58 10° NW 17:38:55 70° NE 17:39:13 67° ENE
Cosmos 1666 3.8 17:37:00 10° NNW 17:40:32 42° W 17:44:03 10° SSW
Cosmos 1515 Rocket 3.4 17:39:32 10° S 17:43:57 71° E 17:44:48 55° NE
USA 308 3.8 17:40:41 10° NW 17:44:08 34° N 17:44:08 34° N
Meteor 1-10 Rocket 4.2 17:45:45 10° S 17:51:33 89° WNW 17:56:15 16° N
COSMOS 2455 4.1 17:46:55 10° WSW 17:52:24 36° NW 17:56:40 16° NNE
Meteor 1-11 Rocket 3.6 17:47:49 10° N 17:53:29 77° ENE 17:59:14 10° SSE
Cosmos 921 Rocket 3.2 17:52:56 10° SSW 17:57:06 65° WNW 17:57:55 52° NNW
SL-08 RB Rocket 3.7 17:54:14 10° SSE 17:58:53 84° WSW 18:03:30 10° NNW
Cosmos 2322 Rocket 2.1 17:54:19 10° NNW 17:59:59 63° ENE 18:00:16 62° ENE
COSMO-SKYMED 1 3.5 17:59:54 21° N 18:02:34 47° WNW 18:06:43 10° SW
Cosmos 2298 Rocket 4.2 17:57:50 10° NNW 18:03:10 73° WSW 18:08:28 10° SSE
Cosmos 1980 Rocket 4.3 17:59:28 10° NW 18:04:06 27° WSW 18:08:42 10° SSW
CZ-4C R/B 3.7 17:58:19 10° NW 18:05:32 54° WSW 18:13:46 10° SSE
Meteor 2-15 Rocket 4.4 18:02:24 10° SSW 18:08:32 80° W 18:14:06 13° N
Feng Yun 1-1 Rocket 4.4 18:04:07 10° SSE 18:10:03 82° WSW 18:15:56 10° NNW
USA 305 4.2 18:06:05 10° NW 18:08:39 32° NNW 18:08:39 32° NNW
DMSP B5D2-2 4.2 18:14:59 61° S 18:14:59 61° S 18:19:19 10° S
CZ-2C R/B 3.4 18:12:16 10° SW 18:14:25 19° SSW 18:14:25 19° SSW
Cosmos 1818 4.4 18:11:31 10° NW 18:16:47 49° WSW 18:20:30 19° S
Aureole 3 Rocket 3.9 18:13:30 10° S 18:26:48 - N 18:16:26 48° SSW
Cosmos 2266 Rocket 4.4 18:12:37 10° NNW 18:18:55 63° W 18:25:14 10° S
SL-16 R/B 2.3 18:13:26 10° NNW 18:19:06 73° WSW 18:21:04 41° S
Cosmos 836 Rocket 4.5 18:14:16 10° SSW 18:19:24 81° WSW 18:19:24 81° WSW
Cosmos 2082 Rocket 4.1 18:16:43 10° WSW 18:21:17 24° NW 18:24:53 14° N
USA 267 4.1 18:19:25 33° NNE 18:21:17 39° NNW 18:27:15 10° W
GEOS 3 Rocket 4.3 18:30:35 47° NNW 18:30:35 47° NNW 18:34:15 10° NW
Okean O Rocket 3.7 18:29:34 10° SSW 18:33:18 26° W 18:37:03 10° NW
Cosmos 2333 Rocket 4.1 18:29:25 10° NNW 18:31:05 19° N 18:31:05 19° N
Cosmos 1867 4.3 18:34:44 10° SW 18:38:42 49° SW 18:38:42 49° SW
Cosmos 2219 Rocket 4.4 18:45:44 10° NNW 18:46:30 14° N 18:46:30 14° N
ATLAS 2AS CENTAUR R/B 4.3 18:54:23 10° NNW 18:58:02 23° N 18:58:02 23° N
Cosmos 2360 Rocket 4.2 19:17:15 10° NW 19:19:10 21° NW 19:19:10 21° NW
